| time (UTC) | temp F | wind direction | speed MPH | gust MPH | rain 1hr in | rain 24hr in | rain mn in | humidity % | barometer mb |
| 20260504233934 | 77 | 0 | 0.0 | 2.0 | 0.00 | 0.02 | 0.01 | 98 | 1012.9 |
| 20260504233433 | 77 | 0 | 0.0 | 2.0 | 0.00 | 0.02 | 0.01 | 98 | 1012.9 |
| 20260504232934 | 77 | 0 | 0.0 | 2.0 | 0.00 | 0.02 | 0.01 | 99 | 1012.8 |
| 20260504232433 | 76 | 0 | 0.0 | 2.0 | 0.00 | 0.02 | 0.01 | 99 | 1012.8 |
| 20260504231933 | 76 | 0 | 0.0 | 2.0 | 0.00 | 0.02 | 0.01 | 99 | 1012.8 |
| 20260504231434 | 76 | 0 | 0.0 | 2.0 | 0.00 | 0.02 | 0.01 | 100 | 1012.9 |
| 20260504230933 | 75 | 0 | 0.0 | 3.0 | 0.00 | 0.02 | 0.01 | 100 | 1012.9 |
| 20260504230433 | 75 | 0 | 0.0 | 3.0 | 0.00 | 0.02 | 0.01 | 100 | 1012.9 |
| 20260504225933 | 75 | 0 | 0.0 | 3.0 | 0.00 | 0.02 | 0.01 | 100 | 1012.9 |
| 20260504225434 | 75 | 0 | 0.0 | 2.0 | 0.00 | 0.02 | 0.01 | 100 | 1012.9 |
| 20260504224933 | 74 | 0 | 0.0 | 2.0 | 0.00 | 0.02 | 0.01 | 100 | 1012.9 |
| 20260504224434 | 74 | 0 | 0.0 | 1.0 | 0.00 | 0.02 | 0.01 | 100 | 1012.8 |
| 20260504223933 | 74 | 0 | 0.0 | 1.0 | 0.00 | 0.02 | 0.01 | 100 | 1012.8 |
| 20260504223433 | 73 | 0 | 0.0 | 2.0 | 0.00 | 0.02 | 0.01 | 100 | 1012.8 |
| 20260504222934 | 72 | 0 | 0.0 | 2.0 | 0.00 | 0.02 | 0.01 | 100 | 1012.9 |
| 20260504222433 | 72 | 0 | 0.0 | 2.0 | 0.00 | 0.02 | 0.01 | 100 | 1012.9 |
| 20260504221934 | 72 | 0 | 0.0 | 2.0 | 0.00 | 0.02 | 0.01 | 100 | 1012.9 |
| 20260504221433 | 71 | 0 | 0.0 | 3.0 | 0.00 | 0.02 | 0.01 | 100 | 1012.8 |
| 20260504220933 | 71 | 0 | 0.0 | 3.0 | 0.00 | 0.02 | 0.01 | 100 | 1012.8 |
| 20260504220433 | 70 | 0 | 0.0 | 0.0 | 0.00 | 0.02 | 0.01 | 99 | 1012.8 |
| 20260504215933 | 70 | 0 | 0.0 | 3.0 | 0.00 | 0.02 | 0.01 | 100 | 1012.8 |
| 20260504215433 | 70 | 0 | 0.0 | 3.0 | 0.00 | 0.02 | 0.01 | 100 | 1012.8 |
| 20260504214934 | 70 | 0 | 0.0 | 1.0 | 0.00 | 0.02 | 0.01 | 99 | 1012.8 |
| 20260504214434 | 69 | 0 | 0.0 | 1.0 | 0.00 | 0.02 | 0.01 | 99 | 1012.7 |
| 20260504213933 | 69 | 0 | 0.0 | 0.0 | 0.00 | 0.02 | 0.01 | 99 | 1012.7 |
| 20260504213434 | 68 | 0 | 0.0 | 1.0 | 0.00 | 0.02 | 0.01 | 99 | 1012.7 |
| 20260504212933 | 68 | 0 | 0.0 | 1.0 | 0.00 | 0.02 | 0.01 | 99 | 1012.6 |
| 20260504212433 | 68 | 0 | 0.0 | 0.0 | 0.00 | 0.02 | 0.01 | 99 | 1012.6 |
| 20260504211933 | 68 | 0 | 0.0 | 0.0 | 0.00 | 0.02 | 0.01 | 99 | 1012.6 |
| 20260504211433 | 67 | 0 | 0.0 | 0.0 | 0.00 | 0.02 | 0.01 | 99 | 1012.4 |
| 20260504210933 | 67 | 0 | 0.0 | 0.0 | 0.00 | 0.02 | 0.01 | 99 | 1012.4 |
| 20260504210434 | 67 | 0 | 0.0 | 0.0 | 0.00 | 0.02 | 0.01 | 99 | 1012.4 |
| 20260504205933 | 67 | 0 | 0.0 | 0.0 | 0.00 | 0.02 | 0.01 | 98 | 1012.3 |
| 20260504205434 | 66 | 0 | 0.0 | 0.0 | 0.01 | 0.02 | 0.01 | 98 | 1012.3 |
| 20260504204934 | 66 | 0 | 0.0 | 0.0 | 0.01 | 0.02 | 0.01 | 98 | 1012.3 |
| 20260504204434 | 66 | 0 | 0.0 | 0.0 | 0.01 | 0.02 | 0.01 | 98 | 1012.1 |
| 20260504203934 | 66 | 0 | 0.0 | 0.0 | 0.01 | 0.02 | 0.01 | 98 | 1012.1 |
| 20260504203434 | 66 | 0 | 0.0 | 0.0 | 0.01 | 0.02 | 0.01 | 98 | 1012.1 |
| 20260504202933 | 66 | 0 | 0.0 | 0.0 | 0.01 | 0.02 | 0.01 | 98 | 1011.9 |
| 20260504202433 | 66 | 0 | 0.0 | 0.0 | 0.01 | 0.02 | 0.01 | 98 | 1011.9 |
| 20260504201933 | 66 | 0 | 0.0 | 0.0 | 0.01 | 0.02 | 0.01 | 98 | 1011.9 |
| 20260504201434 | 67 | 0 | 0.0 | 0.0 | 0.01 | 0.02 | 0.01 | 98 | 1011.8 |
| 20260504200934 | 67 | 0 | 0.0 | 0.0 | 0.01 | 0.02 | 0.01 | 98 | 1011.8 |
| 20260504200433 | 67 | 0 | 0.0 | 0.0 | 0.01 | 0.02 | 0.01 | 98 | 1011.8 |
| 20260504195933 | 67 | 0 | 0.0 | 0.0 | 0.01 | 0.02 | 0.01 | 98 | 1011.6 |
| 20260504195434 | 67 | 0 | 0.0 | 0.0 | 0.00 | 0.01 | 0.00 | 98 | 1011.6 |
| 20260504194934 | 67 | 0 | 0.0 | 0.0 | 0.00 | 0.01 | 0.00 | 98 | 1011.6 |
| 20260504194433 | 67 | 0 | 0.0 | 0.0 | 0.00 | 0.01 | 0.00 | 98 | 1011.5 |
| 20260504193934 | 67 | 0 | 0.0 | 0.0 | 0.00 | 0.01 | 0.00 | 98 | 1011.5 |
| 20260504193433 | 67 | 0 | 0.0 | 0.0 | 0.00 | 0.01 | 0.00 | 98 | 1011.5 |
| 20260504192933 | 68 | 0 | 0.0 | 0.0 | 0.00 | 0.01 | 0.00 | 98 | 1011.4 |
| 20260504192434 | 68 | 0 | 0.0 | 0.0 | 0.00 | 0.01 | 0.00 | 98 | 1011.4 |
| 20260504191934 | 68 | 0 | 0.0 | 0.0 | 0.00 | 0.01 | 0.00 | 98 | 1011.4 |
| 20260504191434 | 68 | 0 | 0.0 | 0.0 | 0.00 | 0.01 | 0.00 | 98 | 1011.3 |
| 20260504190934 | 68 | 0 | 0.0 | 0.0 | 0.00 | 0.01 | 0.00 | 98 | 1011.3 |
| 20260504190434 | 68 | 0 | 0.0 | 0.0 | 0.00 | 0.01 | 0.00 | 98 | 1011.3 |
| 20260504185933 | 68 | 0 | 0.0 | 0.0 | 0.00 | 0.01 | 0.00 | 98 | 1011.2 |
| 20260504185434 | 68 | 0 | 0.0 | 0.0 | 0.00 | 0.01 | 0.00 | 98 | 1011.2 |
| 20260504184934 | 68 | 0 | 0.0 | 0.0 | 0.00 | 0.01 | 0.00 | 98 | 1011.2 |
| 20260504184432 | 68 | 0 | 0.0 | 0.0 | 0.00 | 0.01 | 0.00 | 98 | 1011.2 |
| 20260504183934 | 68 | 0 | 0.0 | 0.0 | 0.00 | 0.01 | 0.00 | 98 | 1011.2 |
| 20260504183433 | 68 | 0 | 0.0 | 0.0 | 0.00 | 0.01 | 0.00 | 98 | 1011.2 |
| 20260504182932 | 68 | 0 | 0.0 | 0.0 | 0.00 | 0.01 | 0.00 | 97 | 1011.2 |
| 20260504182433 | 68 | 0 | 0.0 | 0.0 | 0.00 | 0.01 | 0.00 | 97 | 1011.2 |
| 20260504181932 | 68 | 0 | 0.0 | 0.0 | 0.00 | 0.01 | 0.00 | 97 | 1011.2 |
| 20260504181433 | 68 | 0 | 0.0 | 0.0 | 0.00 | 0.02 | 0.00 | 97 | 1011.1 |
| 20260504180933 | 68 | 0 | 0.0 | 0.0 | 0.00 | 0.02 | 0.00 | 97 | 1011.1 |
| 20260504180434 | 68 | 0 | 0.0 | 0.0 | 0.00 | 0.02 | 0.00 | 97 | 1011.1 |
| 20260504175933 | 68 | 0 | 0.0 | 0.0 | 0.00 | 0.02 | 0.00 | 97 | 1011.2 |
| 20260504175433 | 68 | 0 | 0.0 | 0.0 | 0.00 | 0.02 | 0.00 | 97 | 1011.2 |
| 20260504174934 | 69 | 0 | 0.0 | 0.0 | 0.00 | 0.02 | 0.00 | 97 | 1011.2 |
| 20260504174433 | 69 | 0 | 0.0 | 0.0 | 0.00 | 0.02 | 0.00 | 97 | 1011.1 |
| 20260504173934 | 69 | 0 | 0.0 | 0.0 | 0.00 | 0.02 | 0.00 | 97 | 1011.1 |
| 20260504173435 | 69 | 0 | 0.0 | 0.0 | 0.00 | 0.02 | 0.00 | 97 | 1011.1 |
| 20260504172933 | 69 | 0 | 0.0 | 0.0 | 0.00 | 0.02 | 0.00 | 97 | 1011.1 |
| 20260504172434 | 69 | 0 | 0.0 | 0.0 | 0.00 | 0.02 | 0.00 | 97 | 1011.1 |
| 20260504171933 | 69 | 0 | 0.0 | 0.0 | 0.00 | 0.02 | 0.00 | 97 | 1011.1 |
| 20260504171433 | 69 | 0 | 0.0 | 0.0 | 0.00 | 0.02 | 0.00 | 97 | 1011.0 |
| 20260504170934 | 69 | 0 | 0.0 | 0.0 | 0.00 | 0.02 | 0.00 | 97 | 1011.0 |
| 20260504170434 | 69 | 0 | 0.0 | 0.0 | 0.00 | 0.02 | 0.00 | 97 | 1011.0 |
| 20260504160432 | 70 | 0 | 0.0 | 0.0 | 0.00 | 0.08 | 0.00 | 97 | 1011.3 |
| 20260504150935 | 70 | 0 | 0.0 | 0.0 | 0.00 | 0.08 | 0.00 | 96 | 1011.9 |
| 20260504150433 | 70 | 0 | 0.0 | 0.0 | 0.00 | 0.08 | 0.00 | 96 | 1011.9 |
| 20260504140935 | 71 | 0 | 0.0 | 0.0 | 0.01 | 0.08 | 0.00 | 96 | 1012.3 |
| 20260504140630 | 71 | 0 | 0.0 | 0.0 | 0.01 | 0.08 | 0.00 | 96 | 1012.3 |
| 20260504140129 | 71 | 0 | 0.0 | 0.0 | 0.01 | 0.08 | 0.00 | 96 | 1012.3 |
| 20260504130628 | 71 | 0 | 0.0 | 0.0 | 0.00 | 0.07 | 0.07 | 95 | 1012.5 |
| 20260504130128 | 71 | 0 | 0.0 | 0.0 | 0.00 | 0.07 | 0.07 | 95 | 1012.5 |
| 20260504120129 | 72 | 0 | 0.0 | 0.0 | 0.00 | 0.07 | 0.07 | 94 | 1012.9 |
| 20260504110628 | 72 | 0 | 0.0 | 0.0 | 0.00 | 0.07 | 0.07 | 93 | 1013.4 |
| 20260504110130 | 72 | 0 | 0.0 | 0.0 | 0.00 | 0.07 | 0.07 | 93 | 1013.4 |
| 20260504100129 | 73 | 0 | 0.0 | 0.0 | 0.00 | 0.07 | 0.07 | 92 | 1013.2 |
| 20260504090129 | 73 | 0 | 0.0 | 0.0 | 0.00 | 0.07 | 0.07 | 91 | 1012.8 |
| 20260504081629 | 74 | 0 | 0.0 | 0.0 | 0.00 | 0.07 | 0.07 | 90 | 1012.3 |
| 20260504081130 | 74 | 0 | 0.0 | 0.0 | 0.00 | 0.07 | 0.07 | 90 | 1012.0 |
| 20260504080629 | 74 | 0 | 0.0 | 0.0 | 0.00 | 0.07 | 0.07 | 90 | 1012.0 |
| 20260504080128 | 75 | 0 | 0.0 | 0.0 | 0.00 | 0.07 | 0.07 | 89 | 1012.0 |
| 20260504070131 | 77 | 0 | 0.0 | 0.0 | 0.00 | 0.07 | 0.07 | 86 | 1011.5 |
| 20260504060130 | 79 | 0 | 0.0 | 1.0 | 0.00 | 0.07 | 0.07 | 82 | 1011.3 |
| 20260504050630 | 81 | 0 | 0.0 | 3.0 | 0.00 | 0.07 | 0.07 | 78 | 1011.2 |
| 20260504050129 | 81 | 0 | 0.0 | 2.0 | 0.00 | 0.07 | 0.07 | 78 | 1011.2 |
| 20260504045630 | 81 | 134 | 1.0 | 4.0 | 0.00 | 0.07 | 0.07 | 78 | 1011.2 |
| 20260504045130 | 82 | 128 | 1.0 | 4.0 | 0.00 | 0.07 | 0.07 | 77 | 1011.2 |
| 20260504044631 | 82 | 118 | 1.0 | 3.0 | 0.00 | 0.07 | 0.07 | 77 | 1011.2 |
| 20260504044129 | 82 | 0 | 0.0 | 3.0 | 0.00 | 0.07 | 0.07 | 77 | 1011.2 |
| 20260504043630 | 82 | 0 | 0.0 | 3.0 | 0.00 | 0.07 | 0.07 | 78 | 1011.2 |
| 20260504043129 | 82 | 0 | 0.0 | 3.0 | 0.00 | 0.07 | 0.07 | 77 | 1011.2 |
| 20260504042629 | 83 | 0 | 0.0 | 4.0 | 0.00 | 0.07 | 0.07 | 76 | 1011.3 |
| 20260504042131 | 83 | 0 | 0.0 | 4.0 | 0.00 | 0.07 | 0.07 | 77 | 1011.3 |
| 20260504041632 | 83 | 0 | 0.0 | 2.0 | 0.00 | 0.07 | 0.07 | 79 | 1011.3 |
| 20260504041130 | 83 | 0 | 0.0 | 2.0 | 0.00 | 0.07 | 0.07 | 79 | 1011.3 |
| 20260504040630 | 82 | 0 | 0.0 | 1.0 | 0.00 | 0.07 | 0.07 | 80 | 1011.3 |
| 20260504040129 | 82 | 0 | 0.0 | 2.0 | 0.00 | 0.07 | 0.07 | 80 | 1011.3 |
| 20260504035630 | 82 | 0 | 0.0 | 3.0 | 0.00 | 0.07 | 0.07 | 80 | 1011.3 |
| 20260504035129 | 82 | 0 | 0.0 | 3.0 | 0.00 | 0.07 | 0.07 | 80 | 1011.3 |
| 20260504034631 | 82 | 0 | 0.0 | 2.0 | 0.00 | 0.07 | 0.07 | 80 | 1011.3 |
| 20260504034131 | 81 | 0 | 0.0 | 3.0 | 0.00 | 0.07 | 0.07 | 81 | 1011.4 |
| 20260504033629 | 81 | 0 | 0.0 | 3.0 | 0.00 | 0.07 | 0.07 | 80 | 1011.4 |
| 20260504033130 | 81 | 0 | 0.0 | 3.0 | 0.00 | 0.07 | 0.07 | 80 | 1011.4 |
| 20260504032629 | 81 | 0 | 0.0 | 3.0 | 0.00 | 0.07 | 0.07 | 80 | 1011.5 |
| 20260504032129 | 81 | 0 | 0.0 | 3.0 | 0.00 | 0.07 | 0.07 | 80 | 1011.5 |
| 20260504031631 | 81 | 0 | 0.0 | 3.0 | 0.00 | 0.07 | 0.07 | 80 | 1011.5 |
| 20260504031129 | 81 | 0 | 0.0 | 3.0 | 0.00 | 0.07 | 0.07 | 80 | 1011.8 |
| 20260504030629 | 81 | 0 | 0.0 | 3.0 | 0.00 | 0.07 | 0.07 | 80 | 1011.8 |
| 20260504030130 | 81 | 0 | 0.0 | 7.0 | 0.00 | 0.07 | 0.07 | 80 | 1011.8 |
| 20260504025630 | 81 | 133 | 1.0 | 7.0 | 0.00 | 0.07 | 0.07 | 80 | 1011.9 |
| 20260504025130 | 81 | 128 | 1.0 | 5.0 | 0.00 | 0.07 | 0.07 | 81 | 1011.9 |
| 20260504024629 | 81 | 126 | 1.0 | 4.0 | 0.00 | 0.07 | 0.07 | 80 | 1011.9 |
| 20260504024130 | 81 | 0 | 0.0 | 3.0 | 0.00 | 0.07 | 0.07 | 81 | 1012.2 |
| 20260504023630 | 81 | 0 | 0.0 | 3.0 | 0.00 | 0.07 | 0.07 | 83 | 1012.2 |
| 20260504023129 | 81 | 0 | 0.0 | 2.0 | 0.00 | 0.07 | 0.07 | 82 | 1012.2 |
| 20260504022630 | 81 | 0 | 0.0 | 4.0 | 0.00 | 0.07 | 0.07 | 83 | 1012.3 |
| 20260504022131 | 81 | 0 | 0.0 | 4.0 | 0.00 | 0.07 | 0.07 | 83 | 1012.3 |
| 20260504021630 | 80 | 0 | 0.0 | 3.0 | 0.00 | 0.07 | 0.07 | 84 | 1012.3 |
| 20260504021129 | 80 | 0 | 0.0 | 4.0 | 0.00 | 0.07 | 0.07 | 85 | 1012.4 |
| 20260504020630 | 80 | 0 | 0.0 | 5.0 | 0.00 | 0.07 | 0.07 | 85 | 1012.4 |
| 20260504020131 | 80 | 0 | 0.0 | 5.0 | 0.00 | 0.07 | 0.07 | 85 | 1012.4 |
| 20260504015630 | 80 | 113 | 1.0 | 4.0 | 0.00 | 0.07 | 0.07 | 85 | 1012.7 |
| 20260504015129 | 80 | 132 | 1.0 | 3.0 | 0.00 | 0.07 | 0.07 | 86 | 1012.7 |
| 20260504014629 | 80 | 147 | 1.0 | 4.0 | 0.00 | 0.07 | 0.07 | 87 | 1012.7 |
| 20260504014130 | 80 | 161 | 1.0 | 4.0 | 0.00 | 0.07 | 0.07 | 87 | 1012.9 |
| 20260504013629 | 80 | 0 | 0.0 | 4.0 | 0.00 | 0.07 | 0.07 | 88 | 1012.9 |
| 20260504013130 | 80 | 0 | 0.0 | 3.0 | 0.00 | 0.07 | 0.07 | 89 | 1012.9 |
| 20260504012631 | 79 | 0 | 0.0 | 3.0 | 0.00 | 0.07 | 0.07 | 89 | 1013.1 |
| 20260504012129 | 79 | 0 | 0.0 | 2.0 | 0.00 | 0.07 | 0.07 | 90 | 1013.1 |
| 20260504011630 | 79 | 0 | 0.0 | 2.0 | 0.00 | 0.07 | 0.07 | 90 | 1013.1 |
| 20260504011130 | 79 | 0 | 0.0 | 5.0 | 0.00 | 0.07 | 0.07 | 91 | 1013.3 |
| 20260504010629 | 79 | 0 | 0.0 | 5.0 | 0.00 | 0.07 | 0.07 | 91 | 1013.3 |
| 20260504010130 | 79 | 0 | 0.0 | 4.0 | 0.00 | 0.07 | 0.07 | 90 | 1013.3 |
| 20260504005629 | 79 | 0 | 0.0 | 4.0 | 0.00 | 0.07 | 0.07 | 92 | 1013.3 |
| 20260504005129 | 79 | 125 | 1.0 | 3.0 | 0.00 | 0.07 | 0.07 | 93 | 1013.3 |
| 20260504004629 | 79 | 145 | 1.0 | 4.0 | 0.00 | 0.07 | 0.07 | 93 | 1013.3 |
| 20260504004130 | 79 | 0 | 0.0 | 4.0 | 0.00 | 0.07 | 0.07 | 95 | 1013.5 |
| 20260504003629 | 78 | 0 | 0.0 | 5.0 | 0.00 | 0.07 | 0.07 | 96 | 1013.5 |
| 20260504003131 | 78 | 0 | 0.0 | 5.0 | 0.00 | 0.07 | 0.07 | 96 | 1013.5 |
| 20260504002630 | 78 | 0 | 0.0 | 3.0 | 0.00 | 0.07 | 0.07 | 97 | 1013.6 |
| 20260504002129 | 78 | 0 | 0.0 | 3.0 | 0.00 | 0.07 | 0.07 | 97 | 1013.6 |
| 20260504001630 | 77 | 0 | 0.0 | 1.0 | 0.00 | 0.07 | 0.07 | 97 | 1013.6 |
| 20260504001129 | 77 | 0 | 0.0 | 2.0 | 0.00 | 0.07 | 0.07 | 98 | 1013.8 |
| 20260504000630 | 77 | 0 | 0.0 | 2.0 | 0.00 | 0.07 | 0.07 | 99 | 1013.8 |
| 20260504000130 | 77 | 0 | 0.0 | 1.0 | 0.00 | 0.07 | 0.07 | 99 | 1013.8 |
| 20260503235629 | 77 | 0 | 0.0 | 2.0 | 0.00 | 0.07 | 0.07 | 100 | 1013.9 |
| 20260503235130 | 77 | 0 | 0.0 | 2.0 | 0.00 | 0.07 | 0.07 | 100 | 1013.9 |
| 20260503234629 | 77 | 0 | 0.0 | 2.0 | 0.00 | 0.07 | 0.07 | 100 | 1013.9 |
| 20260503234129 | 76 | 0 | 0.0 | 3.0 | 0.00 | 0.07 | 0.07 | 100 | 1013.9 |